Debrecen, Hungary

6:12 PM CET on February 25, 2017 (GMT +0100)
Debrecen

Weather History for LHDC - January, 2013

Change the Weather History Date:

Friday, January 25, 2013

  Actual Average Record
Temperature  
Mean Temperature 28 °F -  
Max Temperature 30 °F 38 °F - ()
Min Temperature 27 °F 26 °F - ()
Degree Days  
Heating Degree Days 36    
Moisture  
Dew Point 21 °F    
Average Humidity 72    
Maximum Humidity 74    
Minimum Humidity 60    
Precipitation  
Precipitation 0.00 in 0.04 in - ()
Sea Level Pressure  
Sea Level Pressure 29.77 in    
Wind  
Wind Speed 16 mph ()    
Max Wind Speed 23 mph    
Max Gust Speed 34 mph    
Visibility 5.6 miles    
Events      
T = Trace of Precipitation, MM = Missing Value Source: Averaged Metar Reports

Daily Weather History Graph

Daily Weather History Graph

Search for Another Location

Airport or City:

Trip Planner

Search our weather history database for the weather conditions in past years. The results will help you decide how hot, cold, wet, or windy it might be!

Date:

Astronomy

Jan. 25, 2013 Rise Set
Actual Time 7:08 AM CET 4:24 PM CET
Civil Twilight 6:34 AM CET 4:57 PM CET
Nautical Twilight 5:57 AM CET 5:35 PM CET
Astronomical Twilight 5:20 AM CET 6:11 PM CET
Moon 3:03 PM CET 5:36 AM CET
Length of Visible Light 10h 23m
Length of Day
9h 16m
Waxing Gibbous, 97% of the Moon is Illuminated
Jan 25
Waxing Gibbous
Jan 27
Full
Feb 3
Last Quarter
Feb 10
New
Feb 17
First Quarter

Hourly Weather History & Observations

Time (CET) Temp. Windchill Dew Point Humidity Pressure Visibility Wind Dir Wind Speed Gust Speed Precip Events Conditions
1:00 AM 30 °F - 24 °F 70% 29.68 in - NNE 17.9 mph - -  
5:15 AM 28.4 °F 17.0 °F 21.2 °F 74% 29.68 in - NNE 15.0 mph - N/A   Clear
5:45 AM 28.4 °F 16.6 °F 21.2 °F 74% 29.68 in - North 16.1 mph - N/A   Clear
6:00 AM - - - N/A% - 6.2 mi North 15.0 mph - N/A   Overcast
6:15 AM 28.4 °F 16.2 °F 21.2 °F 74% 29.71 in - NNE 17.3 mph 28.8 mph N/A   Clear
6:45 AM 28.4 °F 16.2 °F 21.2 °F 74% 29.71 in - North 17.3 mph - N/A   Clear
7:00 AM 28 °F - 21 °F 66% 29.73 in 9 mi North 15.7 mph - -   Partly Cloudy
7:15 AM 28.4 °F 16.6 °F 21.2 °F 74% 29.71 in 6.2 mi North 16.1 mph - N/A   Overcast
7:45 AM 28.4 °F 16.6 °F 21.2 °F 74% 29.74 in 3.7 mi North 16.1 mph - N/A   Overcast
7:53 AM 28.4 °F 16.6 °F 21.2 °F 74% 29.74 in - North 16.1 mph 29.9 mph N/A   Unknown
8:15 AM 28.4 °F 16.2 °F 21.2 °F 74% 29.74 in 4.3 mi NNE 17.3 mph - N/A   Overcast
8:45 AM 28.4 °F 15.4 °F 21.2 °F 74% 29.74 in 5.0 mi North 19.6 mph 31.1 mph N/A   Overcast
9:00 AM - - - N/A% - 3.1 mi NNE 18.4 mph 32.2 mph N/A   Overcast
9:15 AM 28.4 °F 15.4 °F 21.2 °F 74% 29.74 in 5.0 mi North 19.6 mph - N/A   Overcast
9:45 AM 28.4 °F 15.8 °F 21.2 °F 74% 29.77 in 5.0 mi North 18.4 mph - N/A   Overcast
10:15 AM 28.4 °F 16.6 °F 21.2 °F 74% 29.77 in 5.0 mi North 16.1 mph - N/A   Overcast
10:45 AM 28.4 °F 14.7 °F 21.2 °F 74% 29.77 in 5.0 mi NNE 21.9 mph 33.4 mph N/A   Overcast
11:15 AM 28.4 °F 14.4 °F 21.2 °F 74% 29.77 in 6.2 mi NNE 23.0 mph 34.5 mph N/A   Overcast
11:45 AM 28.4 °F 15.8 °F 21.2 °F 74% 29.77 in 6.2 mi North 18.4 mph - N/A   Overcast
12:00 PM - - - N/A% - 3.1 mi NNE 18.4 mph 32.2 mph N/A   Overcast
12:15 PM 30.2 °F 17.4 °F 21.2 °F 69% 29.77 in 6.2 mi NNE 20.7 mph - N/A   Overcast
12:45 PM 30.2 °F 17.4 °F 21.2 °F 69% 29.77 in 6.2 mi NNE 20.7 mph - N/A   Overcast
1:00 PM 30 °F - 21 °F 60% 29.80 in 6 mi NNE 20.1 mph - -   Partly Cloudy
1:15 PM 30.2 °F 17.8 °F 21.2 °F 69% 29.80 in 6.2 mi NNE 19.6 mph - N/A   Overcast
1:45 PM 28.4 °F 15.1 °F 21.2 °F 74% 29.80 in 6.2 mi North 20.7 mph - N/A   Overcast
2:15 PM 28.4 °F 15.8 °F 21.2 °F 74% 29.80 in 6.2 mi North 18.4 mph - N/A   Mostly Cloudy
2:45 PM 28.4 °F 16.6 °F 21.2 °F 74% 29.80 in - NNE 16.1 mph - N/A   Clear
3:15 PM 28.4 °F 15.1 °F 21.2 °F 74% 29.83 in - NNE 20.7 mph - N/A   Clear
3:45 PM 28.4 °F 16.2 °F 21.2 °F 74% 29.83 in 6.2 mi NNE 17.3 mph - N/A   Mostly Cloudy
4:15 PM 28.4 °F 15.1 °F 21.2 °F 74% 29.83 in 6.2 mi NNE 20.7 mph - N/A   Mostly Cloudy
4:45 PM 28.4 °F 15.4 °F 21.2 °F 74% 29.86 in 6.2 mi NNE 19.6 mph - N/A   Mostly Cloudy
6:00 PM - - - N/A% - - North - - N/A   Unknown
7:00 PM 27 °F - 19 °F 63% 29.91 in - NNE 15.7 mph - -